Hourly Data Report for October 14, 2016

All times are specified in Local Standard Time (LST). Add 1 hour to adjust for Daylight Saving Time where and when it is observed.

SAINT JOHN A
NEW BRUNSWICK

45°18'58.000" N
65°53'24.000" W
108.80 m
8104901
71609
YSJ

Download Data

Hourly Data (October 2016)
Hourly Data Report for October 14, 2016
Temp Definition
°C
Dew Point Temp Definition
°C
Rel Hum Definition
%
Wind Dir Definition
10's deg

Wind Spd Definition
km/h
Visibility Definition
km
Stn Press Definition
kPa
Hmdx Definition


Wind Chill Definition


Weather Definition


TIME
00:00 Legend Double Dagger 13.6 13.6 100 20 13 2.4 100.07     Fog
01:00 Legend Double Dagger 13.7 13.7 100 23 9 1.6 100.06     Fog
02:00 Legend Double Dagger 13.8 13.8 100 26 6 1.6 100.05     Rain,Fog
03:00 Legend Double Dagger 13.8 13.8 100 27 8 4.8 100.08     Rain,Fog
04:00 Legend Double Dagger 12.9 12.3 96 31 30 4.8 100.16     Fog
05:00 Legend Double Dagger 9.6 7.7 88 31 22 24.1 100.27     Mainly Clear
06:00 Legend Double Dagger 7.4 6.7 95 32 30 24.1 100.40     LegendNANA
07:00 Legend Double Dagger 6.6 6.2 97 33 22 19.3 100.52     LegendNANA
08:00 Legend Double Dagger 6.5 4.2 85 34 28 24.1 100.60     Mostly Cloudy
09:00 Legend Double Dagger 8.1 4.2 76 34 23 24.1 100.69     LegendNANA
10:00 Legend Double Dagger 8.3 1.9 64 33 24 24.1 100.77     LegendNANA
11:00 Legend Double Dagger 9.5 0.4 53 33 28 24.1 100.83     Mainly Clear
12:00 Legend Double Dagger 10.2 0.8 52 33 30 24.1 100.86     LegendNANA
13:00 Legend Double Dagger 10.0 -1.1 46 32 31 24.1 100.86     LegendNANA
14:00 Legend Double Dagger 10.5 -2.5 40 34 29 24.1 100.88     Clear
15:00 Legend Double Dagger 10.1 -2.2 42 35 30 24.1 100.91     LegendNANA
16:00 Legend Double Dagger 9.7 -1.6 45 33 26 24.1 100.96     LegendNANA
17:00 Legend Double Dagger 8.6 -2.1 47 35 20 24.1 101.03     Mainly Clear
18:00 Legend Double Dagger 6.8 -1.9 54 34 14 24.1 101.11     LegendNANA
19:00 Legend Double Dagger 5.1 -1.8 61 33 16 24.1 101.20     LegendNANA
20:00 Legend Double Dagger 4.2 -1.0 69 34 14 24.1 101.28     Clear
21:00 Legend Double Dagger 2.0 -1.1 80 35 9 24.1 101.34     LegendNANA
22:00 Legend Double Dagger 1.1 -1.1 85 36 7 24.1 101.41     LegendNANA
23:00 Legend Double Dagger 2.6 -1.8 73 35 18 24.1 101.40     Clear

Notes on Data Quality.

Legend

  • E = Estimated
  • M = Missing
  • NA = Not Available
  • ‡ = Partner data that is not subject to review by the National Climate Archives
Date modified: